Simultaneous Nadir Overpasses (SNOs) Predictions

Prediction of SNOs between GOES-16 and NPP Satellite Orbit:

Table of predicted SNOs for the next 14.0 days since TLE Epoch: 5/8/2021
Index Date Time (GOES-16) GOES-16 Lat,Lon NPP Lat,Lon Distance(km) Time Diff (sec)
1 05/09/2021 06:37:57 -0.02, -75.17 0.59, -77.89 309.97 80
2 05/10/2021 06:16:34 -0.02, -75.18 -0.45, -73.37 206.91 80
3 05/11/2021 18:41:11 0.01, -75.20 -0.77, -78.67 395.57 80
4 05/12/2021 18:19:47 0.02, -75.21 0.26, -74.15 121.57 80
5 05/14/2021 06:44:16 -0.01, -75.22 0.95, -79.41 478.43 80
6 05/15/2021 06:22:52 -0.01, -75.23 -0.08, -74.89 38.81 80
7 05/17/2021 18:28:46 0.01, -75.27 -0.09, -75.67 45.62 80
8 05/18/2021 18:10:03 0.01, -75.29 0.94, -71.15 472.12 80
9 05/20/2021 06:31:51 -0.00, -75.30 0.27, -76.41 126.97 80
10 05/21/2021 06:10:27 -0.00, -75.32 -0.76, -71.89 391.07 80
